DW4879 Weather Reports


Display with metric or nautical units.
time (UTC)temp
F
wind
direction
speed
MPH
gust
MPH
rain 1hr
in
rain 24hr
in
rain mn
in
humidity
%
barometer
mb
20260906133109 58 107 2.0 4.0 0.00 0.00 0.00 52 1024.0
20260906132559 57 113 2.0 4.0 0.00 0.00 0.00 52 1023.9
20260906132051 57 114 2.0 4.0 0.00 0.00 0.00 53 1024.0
20260906131542 57 128 1.0 2.0 0.00 0.00 0.00 54 1024.0
20260906131050 56 128 1.0 3.0 0.00 0.00 0.00 54 1023.9
20260906130543 56 127 1.0 3.0 0.00 0.00 0.00 53 1023.7
20260906130050 57 125 2.0 3.0 0.00 0.00 0.00 53 1023.6
20260906125542 57 119 2.0 3.0 0.00 0.00 0.00 53 1023.4
20260906125032 57 113 1.0 3.0 0.00 0.00 0.00 53 1023.4
20260906124540 57 126 2.0 4.0 0.00 0.00 0.00 53 1023.3
20260906124049 57 117 2.0 4.0 0.00 0.00 0.00 52 1023.4
20260906123601 57 109 2.0 4.0 0.00 0.00 0.00 52 1023.3
20260906123047 57 117 3.0 6.0 0.00 0.00 0.00 52 1023.3
20260906122555 58 113 3.0 4.0 0.00 0.00 0.00 51 1023.4
20260906122048 58 113 3.0 6.0 0.00 0.00 0.00 50 1023.3
20260906121555 58 121 2.0 6.0 0.00 0.00 0.00 49 1023.3
20260906121048 59 130 3.0 6.0 0.00 0.00 0.00 47 1023.2
20260906120538 59 99 3.0 6.0 0.00 0.00 0.00 46 1023.2
20260906120047 60 115 2.0 4.0 0.00 0.00 0.00 45 1023.2
20260906115539 61 117 2.0 4.0 0.00 0.00 0.00 44 1023.2
20260906115046 61 136 1.0 5.0 0.00 0.00 0.00 43 1023.3
20260906114606 61 126 3.0 8.0 0.00 0.00 0.00 43 1023.3
20260906114102 61 98 4.0 8.0 0.00 0.00 0.00 43 1023.2
20260906113555 61 105 3.0 8.0 0.00 0.00 0.00 43 1023.1
20260906113104 61 105 4.0 9.0 0.00 0.00 0.00 43 1023.1
20260906112556 61 59 5.0 9.0 0.00 0.00 0.00 43 1023.0
20260906112049 61 75 4.0 9.0 0.00 0.00 0.00 44 1023.1
20260906111600 61 88 4.0 10.0 0.00 0.00 0.00 44 1023.1
20260906111049 61 84 5.0 10.0 0.00 0.00 0.00 44 1023.0
20260906110601 60 84 4.0 9.0 0.00 0.00 0.00 45 1023.1
20260906110051 60 80 4.0 8.0 0.00 0.00 0.00 45 1023.0
20260906105541 60 104 3.0 7.0 0.00 0.00 0.00 45 1022.9
20260906105051 60 84 2.0 5.0 0.00 0.00 0.00 45 1022.9
20260906104551 60 88 2.0 4.0 0.00 0.00 0.00 45 1023.0
20260906104049 60 76 2.0 4.0 0.00 0.00 0.00 45 1023.0
20260906103542 61 86 2.0 6.0 0.00 0.00 0.00 45 1023.0
20260906103034 61 101 3.0 6.0 0.00 0.00 0.00 44 1023.0
20260906102539 61 99 3.0 7.0 0.00 0.00 0.00 44 1023.0
20260906102047 61 107 4.0 6.0 0.00 0.00 0.00 44 1022.9
20260906101556 61 76 3.0 6.0 0.00 0.00 0.00 43 1022.9
20260906101100 61 71 3.0 8.0 0.00 0.00 0.00 43 1022.9
20260906100501 62 74 4.0 8.0 0.00 0.00 0.00 42 1022.9
20260906100039 62 74 3.0 7.0 0.00 0.00 0.00 42 1022.8
20260906095543 62 82 4.0 5.0 0.00 0.00 0.00 42 1022.9
20260906095051 62 69 3.0 5.0 0.00 0.00 0.00 41 1023.0
20260906094558 62 77 1.0 3.0 0.00 0.00 0.00 40 1023.0
20260906094000 63 107 2.0 3.0 0.00 0.00 0.00 40 1023.0
20260906093511 63 96 1.0 6.0 0.00 0.00 0.00 39 1023.0
20260906093016 63 108 2.0 6.0 0.00 0.00 0.00 39 1022.9
20260906092523 63 98 3.0 6.0 0.00 0.00 0.00 38 1022.8
20260906092032 63 101 3.0 7.0 0.00 0.00 0.00 38 1022.8
20260906091540 64 85 3.0 7.0 0.00 0.00 0.00 37 1022.7
20260906091047 64 80 3.0 6.0 0.00 0.00 0.00 37 1022.8
20260906090555 64 89 3.0 6.0 0.00 0.00 0.00 37 1022.7
20260906090046 64 86 4.0 7.0 0.00 0.00 0.00 37 1022.7
20260906085554 64 94 4.0 6.0 0.00 0.00 0.00 37 1022.8
20260906085101 64 108 3.0 6.0 0.00 0.00 0.00 37 1022.8
20260906084505 64 87 3.0 6.0 0.00 0.00 0.00 37 1022.8
20260906084104 64 89 3.0 6.0 0.00 0.00 0.00 37 1022.9
20260906083503 64 98 4.0 7.0 0.00 0.00 0.00 36 1022.9
20260906083102 64 90 4.0 9.0 0.00 0.00 0.00 36 1022.9
20260906082505 64 64 4.0 8.0 0.00 0.00 0.00 36 1023.0
20260906082009 65 72 3.0 7.0 0.00 0.00 0.00 35 1023.0
20260906081604 65 61 2.0 4.0 0.00 0.00 0.00 35 1023.0
20260906081007 65 91 0.0 3.0 0.00 0.00 0.00 34 1023.1
20260906080517 65 91 0.0 3.0 0.00 0.00 0.00 34 1023.1
20260906080025 66 87 1.0 3.0 0.00 0.00 0.00 34 1023.1
20260906075529 66 93 0.0 3.0 0.00 0.00 0.00 34 1023.1
20260906075037 66 96 2.0 4.0 0.00 0.00 0.00 34 1023.1
20260906074546 66 101 2.0 4.0 0.00 0.00 0.00 34 1023.1
20260906074053 66 93 2.0 4.0 0.00 0.00 0.00 34 1023.1
20260906073604 66 86 2.0 4.0 0.00 0.00 0.00 34 1023.1
20260906073008 65 77 2.0 3.0 0.00 0.00 0.00 34 1023.0
20260906072600 66 82 1.0 3.0 0.00 0.00 0.00 35 1023.1
20260906072003 66 118 2.0 3.0 0.00 0.00 0.00 35 1023.1
20260906071600 66 127 1.0 2.0 0.00 0.00 0.00 34 1023.1
20260906071051 66 90 1.0 2.0 0.00 0.00 0.00 34 1023.1
20260906070559 66 323 0.0 0.0 0.00 0.00 0.00 34 1023.2
20260906070051 67 323 0.0 2.0 0.00 0.00 0.00 33 1023.2
20260906065543 67 323 0.0 2.0 0.00 0.00 0.00 33 1023.1
20260906065049 67 323 0.0 2.0 0.00 0.00 0.00 33 1023.0
20260906064601 67 323 0.0 2.0 0.00 0.00 0.00 33 1023.0
20260906064104 68 309 0.0 2.0 0.00 0.00 0.00 33 1023.0
20260906063558 68 326 1.0 4.0 0.00 0.00 0.00 33 1023.0
20260906063108 68 342 2.0 4.0 0.00 0.00 0.00 32 1023.1
20260906062555 68 360 2.0 4.0 0.00 0.00 0.00 32 1023.1
20260906062103 68 344 2.0 6.0 0.00 0.00 0.00 32 1023.1
20260906061559 69 5 3.0 7.0 0.00 0.00 0.00 31 1023.1
20260906061104 69 355 3.0 8.0 0.00 0.00 0.00 32 1023.2
20260906060506 69 5 3.0 8.0 0.00 0.00 0.00 31 1023.1
20260906060039 69 16 4.0 9.0 0.00 0.00 0.00 31 1023.1
20260906055544 69 22 5.0 10.0 0.00 0.00 0.00 31 1023.1
20260906055052 69 38 4.0 10.0 0.00 0.00 0.00 31 1023.1
20260906054609 69 16 5.0 10.0 0.00 0.00 0.00 31 1023.1
20260906054050 69 5 5.0 10.0 0.00 0.00 0.00 31 1023.0
20260906053600 69 37 4.0 8.0 0.00 0.00 0.00 31 1023.1
20260906053001 70 360 4.0 9.0 0.00 0.00 0.00 31 1023.0
20260906052509 70 36 5.0 9.0 0.00 0.00 0.00 31 1023.1
20260906052002 70 11 4.0 9.0 0.00 0.00 0.00 31 1023.1
20260906051509 70 15 4.0 8.0 0.00 0.00 0.00 31 1023.1
20260906051002 70 9 3.0 8.0 0.00 0.00 0.00 32 1023.1
20260906050558 70 29 3.0 8.0 0.00 0.00 0.00 32 1023.1
20260906050001 70 10 4.0 6.0 0.00 0.00 0.00 32 1023.1
20260906045600 70 360 3.0 6.0 0.00 0.00 0.00 32 1023.1
20260906045105 70 5 4.0 5.0 0.00 0.00 0.00 32 1023.0
20260906044558 70 28 3.0 5.0 0.00 0.00 0.00 32 1023.0
20260906044048 71 30 3.0 5.0 0.00 0.00 0.00 32 1023.1
20260906043556 71 13 3.0 5.0 0.00 0.00 0.00 31 1023.1
20260906043047 71 18 2.0 4.0 0.00 0.00 0.00 31 1023.1
20260906042555 72 26 2.0 4.0 0.00 0.00 0.00 31 1023.1
20260906042047 73 21 2.0 3.0 0.00 0.00 0.00 31 1023.1
20260906041540 73 349 1.0 4.0 0.00 0.00 0.00 30 1023.0
20260906041047 73 327 2.0 4.0 0.00 0.00 0.00 30 1023.0
20260906040536 73 308 2.0 5.0 0.00 0.00 0.00 30 1022.9
20260906040044 73 313 3.0 5.0 0.00 0.00 0.00 30 1022.9
20260906035555 73 345 2.0 3.0 0.00 0.00 0.00 31 1022.9
20260906035100 74 355 1.0 3.0 0.00 0.00 0.00 30 1022.8
20260906034551 74 5 1.0 2.0 0.00 0.00 0.00 30 1022.8
20260906034058 74 355 1.0 2.0 0.00 0.00 0.00 30 1022.8
20260906033501 75 303 1.0 2.0 0.00 0.00 0.00 30 1022.8
20260906033010 75 303 1.0 3.0 0.00 0.00 0.00 29 1022.8
20260906032503 76 312 1.0 2.0 0.00 0.00 0.00 29 1022.8
20260906032010 76 312 0.0 1.0 0.00 0.00 0.00 29 1022.8
20260906031504 76 312 0.0 3.0 0.00 0.00 0.00 29 1022.7
20260906031057 76 312 1.0 3.0 0.00 0.00 0.00 29 1022.6
20260906030604 77 282 2.0 3.0 0.00 0.00 0.00 28 1022.5
20260906030005 77 256 0.0 2.0 0.00 0.00 0.00 28 1022.4
20260906025511 77 253 1.0 2.0 0.00 0.00 0.00 28 1022.4
20260906025017 77 247 1.0 2.0 0.00 0.00 0.00 28 1022.3
20260906024503 77 247 0.0 2.0 0.00 0.00 0.00 28 1022.3
20260906024009 78 254 1.0 2.0 0.00 0.00 0.00 28 1022.2
20260906023516 78 279 0.0 2.0 0.00 0.00 0.00 27 1022.2
20260906023103 78 279 1.0 2.0 0.00 0.00 0.00 27 1022.1
20260906022501 78 279 0.0 2.0 0.00 0.00 0.00 27 1022.0
20260906022009 78 279 0.0 3.0 0.00 0.00 0.00 27 1022.0
20260906021603 79 286 1.0 3.0 0.00 0.00 0.00 27 1022.0
20260906021004 79 281 1.0 2.0 0.00 0.00 0.00 26 1022.0
20260906020511 79 290 1.0 2.0 0.00 0.00 0.00 26 1022.0
20260906020057 80 290 1.0 2.0 0.00 0.00 0.00 26 1021.9
20260906015545 80 280 1.0 3.0 0.00 0.00 0.00 26 1021.8
20260906015053 80 281 1.0 3.0 0.00 0.00 0.00 26 1021.8
20260906014555 80 288 2.0 4.0 0.00 0.00 0.00 25 1021.8
20260906014053 81 286 1.0 4.0 0.00 0.00 0.00 25 1021.8
20260906013545 81 286 2.0 4.0 0.00 0.00 0.00 25 1021.9
20260906013053 81 311 1.0 7.0 0.00 0.00 0.00 25 1021.9
20260906012601 81 288 2.0 6.0 0.00 0.00 0.00 25 1021.9
20260906012050 82 295 3.0 6.0 0.00 0.00 0.00 25 1021.9
20260906011559 82 304 4.0 6.0 0.00 0.00 0.00 25 1021.9
20260906011003 82 321 3.0 9.0 0.00 0.00 0.00 25 1021.9
20260906010511 82 291 5.0 9.0 0.00 0.00 0.00 25 1021.9
20260906010108 82 296 4.0 8.0 0.00 0.00 0.00 25 1022.0
20260906005509 82 296 2.0 4.0 0.00 0.01 0.00 26 1021.9
20260906005015 82 271 2.0 4.0 0.00 0.01 0.00 26 1022.0
20260906004524 82 295 1.0 4.0 0.00 0.01 0.00 27 1022.0
20260906004031 82 212 1.0 4.0 0.00 0.01 0.00 27 1021.9
20260906003539 83 232 1.0 4.0 0.00 0.01 0.00 26 1022.0
20260906003047 83 224 1.0 4.0 0.00 0.01 0.00 26 1022.0
20260906002555 83 231 2.0 5.0 0.00 0.01 0.00 26 1021.9
20260906002047 83 273 1.0 7.0 0.00 0.01 0.00 26 1022.0
20260906001553 83 290 4.0 7.0 0.00 0.01 0.00 26 1022.0
20260906001102 84 229 1.0 7.0 0.00 0.01 0.00 26 1022.0
20260906000505 84 273 2.0 9.0 0.00 0.01 0.00 25 1022.0
20260906000101 84 195 3.0 9.0 0.00 0.01 0.00 25 1022.0
20260905235503 84 201 5.0 8.0 0.00 0.01 0.00 25 1022.0
20260905235100 84 233 1.0 10.0 0.00 0.01 0.00 26 1022.0
20260905234503 84 330 4.0 10.0 0.00 0.01 0.00 26 1022.1
20260905234103 84 260 2.0 8.0 0.00 0.01 0.00 26 1022.1
20260905233502 84 218 2.0 9.0 0.00 0.01 0.00 25 1022.1
20260905233015 85 273 5.0 9.0 0.00 0.01 0.00 24 1022.1
20260905232521 85 267 2.0 8.0 0.00 0.01 0.00 24 1022.0
20260905232021 86 311 4.0 11.0 0.00 0.01 0.00 24 1022.0
20260905231535 85 200 4.0 11.0 0.00 0.01 0.00 24 1022.1
20260905231036 85 233 4.0 12.0 0.00 0.01 0.00 25 1022.1
20260905230544 85 305 6.0 13.0 0.00 0.01 0.00 25 1022.2
20260905230117 86 306 4.0 12.0 0.00 0.01 0.00 24 1022.1
20260905225545 86 273 4.0 12.0 0.00 0.01 0.00 25 1022.1
20260905225050 86 294 4.0 11.0 0.00 0.01 0.00 25 1022.1
20260905224559 86 319 6.0 11.0 0.00 0.01 0.00 24 1022.2
20260905224001 86 286 1.0 14.0 0.00 0.01 0.00 25 1022.2
20260905223556 86 279 6.0 14.0 0.00 0.01 0.00 25 1022.2
20260905223107 87 111 3.0 8.0 0.00 0.01 0.00 25 1022.2
20260905222557 87 235 2.0 10.0 0.00 0.01 0.00 25 1022.3
20260905222047 86 188 3.0 12.0 0.00 0.01 0.00 25 1022.3
20260905221600 86 247 6.0 12.0 0.00 0.01 0.00 26 1022.4
20260905221104 86 223 5.0 11.0 0.00 0.01 0.00 26 1022.4
20260905220505 86 204 4.0 14.0 0.00 0.01 0.00 26 1022.5
20260905220055 86 302 2.0 11.0 0.00 0.01 0.00 25 1022.5
20260905215603 87 258 6.0 11.0 0.00 0.01 0.00 24 1022.7
20260905215059 87 251 3.0 11.0 0.00 0.01 0.00 25 1022.6
20260905214604 86 223 4.0 15.0 0.00 0.01 0.00 25 1022.8
20260905214006 86 285 10.0 15.0 0.00 0.01 0.00 25 1022.7
20260905213601 86 315 10.0 15.0 0.00 0.01 0.00 25 1022.8
20260905213003 87 214 8.0 15.0 0.00 0.01 0.00 25 1022.9
20260905212559 87 280 5.0 15.0 0.00 0.01 0.00 25 1023.0
20260905212002 86 132 6.0 15.0 0.00 0.01 0.00 26 1022.9
20260905211604 86 288 1.0 9.0 0.00 0.01 0.00 26 1023.0
20260905211049 87 175 3.0 14.0 0.00 0.01 0.00 26 1023.0
20260905210556 86 212 4.0 14.0 0.00 0.01 0.00 26 1023.1
20260905210105 85 294 5.0 13.0 0.00 0.01 0.00 26 1023.1
20260905205507 85 304 7.0 14.0 0.00 0.01 0.00 26 1023.3
20260905205102 86 256 8.0 14.0 0.00 0.01 0.00 27 1023.3
20260905204505 87 257 4.0 11.0 0.00 0.01 0.00 25 1023.3
20260905204103 87 200 2.0 12.0 0.00 0.01 0.00 25 1023.4
20260905203553 87 225 4.0 12.0 0.00 0.01 0.00 25 1023.6
20260905203104 87 206 6.0 12.0 0.00 0.01 0.00 25 1023.5
20260905202503 87 250 5.0 25.0 0.00 0.01 0.00 26 1023.6
20260905202008 85 202 3.0 25.0 0.00 0.01 0.00 27 1023.6
20260905201517 85 243 7.0 21.0 0.00 0.01 0.00 27 1023.6
20260905201024 85 336 3.0 12.0 0.00 0.01 0.00 27 1023.7
20260905200532 85 261 6.0 12.0 0.00 0.01 0.00 27 1023.8
20260905200041 85 250 2.0 10.0 0.00 0.01 0.00 27 1023.8
20260905195549 85 290 7.0 10.0 0.00 0.01 0.00 27 1023.8
20260905195056 86 190 4.0 10.0 0.00 0.01 0.00 27 1023.8
20260905194604 85 184 4.0 9.0 0.00 0.01 0.00 28 1023.8
20260905194008 85 260 3.0 12.0 0.00 0.01 0.00 28 1023.9
20260905193603 85 215 3.0 12.0 0.00 0.01 0.00 28 1024.0
20260905193006 85 194 6.0 13.0 0.00 0.01 0.00 28 1023.9
20260905192601 84 257 4.0 12.0 0.00 0.01 0.00 29 1024.0
20260905192004 83 287 6.0 12.0 0.00 0.01 0.00 30 1024.0
20260905191602 84 265 3.0 12.0 0.00 0.01 0.00 29 1024.1
20260905191053 84 196 4.0 10.0 0.00 0.01 0.00 29 1024.1
20260905190601 84 290 3.0 11.0 0.00 0.01 0.00 29 1024.1
20260905190004 84 265 5.0 11.0 0.00 0.01 0.00 30 1024.1
20260905185511 83 220 3.0 10.0 0.00 0.01 0.00 30 1024.2
20260905185021 82 248 3.0 13.0 0.00 0.01 0.00 31 1024.3
20260905184527 82 281 6.0 13.0 0.00 0.01 0.00 31 1024.3
20260905184035 83 290 4.0 8.0 0.00 0.01 0.00 31 1024.4
20260905183543 83 254 3.0 11.0 0.00 0.01 0.00 32 1024.4
20260905183034 82 209 5.0 11.0 0.00 0.01 0.00 32 1024.5
20260905182541 81 321 4.0 9.0 0.00 0.01 0.00 33 1024.5
20260905182046 81 339 3.0 12.0 0.00 0.01 0.00 34 1024.6
20260905181554 81 285 7.0 12.0 0.00 0.01 0.00 33 1024.7
20260905181104 81 317 7.0 10.0 0.00 0.01 0.00 34 1024.8
20260905180505 81 273 3.0 12.0 0.00 0.01 0.00 34 1024.9
20260905180059 80 275 4.0 12.0 0.00 0.01 0.00 35 1024.9
20260905175502 80 306 4.0 10.0 0.00 0.01 0.00 34 1025.0
20260905175100 80 222 3.0 10.0 0.00 0.01 0.00 36 1025.0
20260905174550 80 295 4.0 9.0 0.00 0.01 0.00 35 1025.1
20260905174058 79 296 3.0 11.0 0.00 0.01 0.00 37 1025.1
20260905173552 79 331 5.0 10.0 0.00 0.01 0.00 37 1025.2
20260905173043 79 298 4.0 10.0 0.00 0.01 0.00 37 1025.3
20260905172549 78 226 3.0 12.0 0.00 0.01 0.00 38 1025.3
20260905172057 78 296 9.0 12.0 0.00 0.01 0.00 38 1025.2
20260905171608 79 269 5.0 12.0 0.00 0.01 0.00 38 1025.3
20260905171056 79 184 3.0 8.0 0.00 0.01 0.00 39 1025.4
20260905170603 78 229 3.0 11.0 0.00 0.01 0.00 39 1025.3
20260905170055 77 290 7.0 11.0 0.00 0.01 0.00 39 1025.2
20260905165546 77 274 3.0 10.0 0.00 0.01 0.00 40 1025.3
20260905165053 77 212 3.0 10.0 0.00 0.01 0.00 40 1025.3
20260905164602 77 258 7.0 10.0 0.00 0.01 0.00 39 1025.2
20260905164009 77 306 2.0 8.0 0.00 0.01 0.00 41 1025.2
20260905163559 77 258 3.0 8.0 0.00 0.01 0.00 41 1025.2
20260905163003 77 236 3.0 6.0 0.00 0.01 0.00 42 1025.3
20260905162510 76 260 3.0 7.0 0.00 0.01 0.00 41 1025.3
20260905162018 76 316 1.0 5.0 0.00 0.01 0.00 43 1025.3
20260905161525 75 265 2.0 5.0 0.00 0.01 0.00 43 1025.3
20260905161033 75 168 0.0 6.0 0.00 0.01 0.00 45 1025.2
20260905160540 74 153 0.0 4.0 0.00 0.01 0.00 45 1025.2
20260905160049 74 174 1.0 4.0 0.00 0.01 0.00 47 1025.2
20260905155538 73 205 2.0 6.0 0.00 0.01 0.00 48 1025.1
20260905155045 73 162 4.0 6.0 0.00 0.01 0.00 49 1025.1
20260905154604 72 113 2.0 6.0 0.00 0.01 0.00 50 1025.1
20260905154102 72 120 3.0 6.0 0.00 0.01 0.00 50 1025.1
20260905153555 72 161 2.0 4.0 0.00 0.01 0.00 50 1025.1
20260905153105 72 143 2.0 6.0 0.00 0.01 0.00 50 1025.1
20260905152555 71 102 3.0 7.0 0.00 0.01 0.00 50 1025.1
20260905152045 71 138 2.0 6.0 0.00 0.01 0.00 51 1025.2
20260905151553 71 121 3.0 6.0 0.00 0.01 0.00 51 1025.0
20260905151101 70 112 3.0 7.0 0.00 0.01 0.00 51 1025.0
20260905150504 70 115 2.0 6.0 0.00 0.01 0.00 52 1024.9
20260905150113 69 118 3.0 6.0 0.00 0.01 0.00 53 1025.1
20260905145503 69 85 4.0 6.0 0.00 0.01 0.00 53 1024.9
20260905145059 68 102 2.0 7.0 0.00 0.01 0.00 54 1024.9
20260905144502 68 82 4.0 7.0 0.00 0.01 0.00 54 1024.8
20260905144101 67 97 2.0 7.0 0.00 0.01 0.00 54 1024.8
20260905143550 67 109 3.0 7.0 0.00 0.01 0.00 56 1024.8
20260905143058 66 155 3.0 6.0 0.00 0.01 0.00 55 1024.8
20260905142501 66 116 3.0 6.0 0.00 0.01 0.00 56 1024.8
20260905142009 65 127 3.0 6.0 0.00 0.01 0.00 56 1024.8
20260905141607 65 118 3.0 6.0 0.00 0.01 0.00 56 1024.8
20260905141011 64 82 2.0 4.0 0.00 0.01 0.00 57 1024.9
20260905140519 63 111 3.0 6.0 0.00 0.01 0.00 57 1024.8
20260905135502 63 121 2.0 6.0 0.00 0.01 0.00 58 1024.7
20260905135012 62 123 3.0 6.0 0.00 0.01 0.00 59 1024.6
20260905134605 62 117 3.0 6.0 0.00 0.01 0.00 59 1024.5
20260905134008 61 130 1.0 6.0 0.00 0.01 0.00 61 1024.4
20260905133604 61 114 1.0 6.0 0.00 0.01 0.00 61 1024.3